ADC006 SKCL-SKMR

Flight info

Callsign ADC006
Flight time 1h 7m
Altitude 24000
Route ULQ1B ULQ RNG UP778 BUTAL BUTA2E
Aircraft A320/M-SKBO/2200

Departure

Time 2026-05-05 15:25
Airport Alfonso Bonilla Aragon International Airport (SKCL)

Arrival

Time 2026-05-05 16:32
Airport Los Garzones Airport (SKMR)
Time Latitude Longitude Altitude Speed Heading
2026-05-05 15:12 3.53830 -76.38705 3177 ft 0 kts 263°
2026-05-05 15:16 3.53830 -76.38704 3177 ft 1 kts 263°
2026-05-05 15:16 3.53832 -76.38690 3177 ft 3 kts 253°
2026-05-05 15:16 3.53841 -76.38673 3177 ft 3 kts 232°
2026-05-05 15:16 3.53856 -76.38659 3177 ft 3 kts 212°
2026-05-05 15:17 3.53875 -76.38651 3177 ft 3 kts 193°
2026-05-05 15:17 3.53895 -76.38650 3177 ft 3 kts 177°
2026-05-05 15:17 3.53904 -76.38650 3177 ft 0 kts 173°
2026-05-05 15:19 3.53903 -76.38650 3177 ft 1 kts 173°
2026-05-05 15:20 3.53851 -76.38625 3177 ft 18 kts 144°
2026-05-05 15:20 3.53746 -76.38550 3177 ft 19 kts 146°
2026-05-05 15:20 3.53636 -76.38482 3177 ft 18 kts 171°
2026-05-05 15:20 3.53508 -76.38475 3177 ft 19 kts 184°
2026-05-05 15:21 3.53379 -76.38496 3177 ft 19 kts 190°
2026-05-05 15:21 3.53250 -76.38519 3177 ft 19 kts 189°
2026-05-05 15:21 3.53121 -76.38541 3177 ft 19 kts 189°
2026-05-05 15:21 3.53000 -76.38540 3177 ft 15 kts 124°
2026-05-05 15:22 3.52991 -76.38519 3177 ft 0 kts 109°
2026-05-05 15:23 3.52990 -76.38516 3177 ft 1 kts 109°
2026-05-05 15:23 3.52985 -76.38499 3177 ft 4 kts 105°
2026-05-05 15:23 3.52992 -76.38458 3177 ft 11 kts 63°
2026-05-05 15:24 3.53058 -76.38387 3177 ft 18 kts 15°
2026-05-05 15:24 3.53185 -76.38364 3177 ft 19 kts
2026-05-05 15:24 3.53505 -76.38310 3177 ft 89 kts
2026-05-05 15:24 3.54386 -76.38157 3177 ft 163 kts 10°
2026-05-05 15:25 3.55563 -76.37951 3800 ft 173 kts 10°
2026-05-05 15:25 3.56816 -76.37714 4332 ft 195 kts 10°
2026-05-05 15:25 3.58262 -76.37457 4798 ft 227 kts 10°
2026-05-05 15:25 3.59871 -76.37177 5260 ft 241 kts 11°
2026-05-05 15:26 3.61566 -76.36880 5722 ft 248 kts 11°
2026-05-05 15:26 3.63288 -76.36576 6176 ft 252 kts 11°
2026-05-05 15:26 3.65012 -76.36271 6625 ft 255 kts 10°
2026-05-05 15:26 3.66776 -76.35959 7080 ft 257 kts 11°
2026-05-05 15:27 3.68539 -76.35604 7532 ft 259 kts 13°
2026-05-05 15:27 3.70296 -76.35189 7983 ft 261 kts 15°
2026-05-05 15:27 3.72057 -76.34726 8434 ft 264 kts 16°
2026-05-05 15:27 3.73832 -76.34229 8885 ft 266 kts 17°
2026-05-05 15:28 3.75606 -76.33712 9333 ft 268 kts 18°
2026-05-05 15:28 3.77400 -76.33161 9781 ft 271 kts 19°
2026-05-05 15:28 3.79240 -76.32568 9932 ft 281 kts 19°
2026-05-05 15:28 3.81123 -76.31944 9974 ft 286 kts 20°
2026-05-05 15:29 3.83018 -76.31306 9982 ft 288 kts 20°
2026-05-05 15:29 3.84911 -76.30664 9985 ft 287 kts 20°
2026-05-05 15:29 3.86788 -76.30025 9984 ft 285 kts 20°
2026-05-05 15:29 3.88681 -76.29378 9975 ft 284 kts 20°
2026-05-05 15:30 3.90528 -76.28746 10100 ft 276 kts 20°
2026-05-05 15:30 3.92370 -76.28115 10562 ft 293 kts 20°
2026-05-05 15:30 3.94387 -76.27419 11029 ft 327 kts 20°
2026-05-05 15:30 3.96649 -76.26638 11497 ft 360 kts 20°
2026-05-05 15:31 3.99117 -76.25787 11964 ft 382 kts 20°
2026-05-05 15:31 4.01663 -76.24913 12418 ft 396 kts 20°
2026-05-05 15:31 4.04307 -76.24008 12874 ft 404 kts 20°
2026-05-05 15:31 4.06980 -76.23060 13330 ft 410 kts 22°
2026-05-05 15:32 4.09655 -76.22035 13785 ft 415 kts 23°
2026-05-05 15:32 4.12365 -76.20949 14239 ft 419 kts 24°
2026-05-05 15:32 4.15092 -76.19828 14699 ft 423 kts 24°
2026-05-05 15:32 4.17818 -76.18689 15153 ft 423 kts 24°
2026-05-05 15:33 4.20532 -76.17545 15603 ft 423 kts 24°
2026-05-05 15:33 4.23216 -76.16408 16049 ft 424 kts 24°
2026-05-05 15:33 4.25955 -76.15245 16502 ft 426 kts 24°
2026-05-05 15:33 4.28691 -76.14081 16954 ft 428 kts 24°
2026-05-05 15:34 4.31466 -76.12899 17409 ft 431 kts 24°
2026-05-05 15:34 4.34196 -76.11736 17854 ft 433 kts 24°
2026-05-05 15:34 4.36986 -76.10547 18306 ft 436 kts 24°
2026-05-05 15:34 4.39804 -76.09347 18760 ft 439 kts 24°
2026-05-05 15:35 4.42617 -76.08148 19209 ft 442 kts 24°
2026-05-05 15:35 4.45469 -76.06933 19663 ft 445 kts 24°
2026-05-05 15:35 4.48317 -76.05720 20113 ft 448 kts 24°
2026-05-05 15:35 4.51182 -76.04500 20561 ft 450 kts 24°
2026-05-05 15:36 4.54086 -76.03263 21013 ft 453 kts 24°
2026-05-05 15:36 4.56043 -76.02430 21317 ft 455 kts 24°
2026-05-05 15:36 4.59928 -76.00777 21915 ft 460 kts 24°
2026-05-05 15:36 4.61930 -75.99924 22221 ft 462 kts 24°
2026-05-05 15:37 4.65867 -75.98248 22818 ft 467 kts 24°
2026-05-05 15:37 4.67872 -75.97395 23120 ft 469 kts 24°
2026-05-05 15:37 4.70909 -75.96101 23574 ft 473 kts 24°
2026-05-05 15:37 4.73954 -75.94805 23964 ft 478 kts 24°
2026-05-05 15:38 4.76430 -75.93750 24074 ft 482 kts 24°
2026-05-05 15:38 4.78985 -75.92662 24135 ft 484 kts 24°
2026-05-05 15:38 4.82116 -75.91328 24155 ft 486 kts 24°
2026-05-05 15:38 4.85201 -75.90014 24157 ft 488 kts 24°
2026-05-05 15:39 4.88355 -75.88671 24157 ft 489 kts 24°
2026-05-05 15:39 4.91492 -75.87335 24157 ft 489 kts 24°
2026-05-05 15:39 4.94629 -75.85999 24150 ft 489 kts 24°
2026-05-05 15:39 4.97756 -75.84666 24140 ft 489 kts 24°
2026-05-05 15:40 5.00880 -75.83336 24134 ft 488 kts 24°
2026-05-05 15:40 5.03994 -75.82009 24128 ft 487 kts 24°
2026-05-05 15:40 5.07127 -75.80673 24118 ft 486 kts 24°
2026-05-05 15:40 5.10215 -75.79356 24108 ft 485 kts 23°
2026-05-05 15:41 5.13358 -75.78016 24096 ft 484 kts 23°
2026-05-05 15:41 5.16450 -75.76698 24091 ft 483 kts 23°
2026-05-05 15:41 5.19513 -75.75392 24089 ft 483 kts 23°
2026-05-05 15:41 5.22613 -75.74070 24082 ft 482 kts 23°
2026-05-05 15:42 5.25711 -75.72749 24077 ft 482 kts 23°
2026-05-05 15:42 5.28786 -75.71437 24075 ft 481 kts 23°
2026-05-05 15:42 5.31849 -75.70130 24076 ft 481 kts 23°
2026-05-05 15:42 5.34967 -75.68800 24067 ft 481 kts 23°
2026-05-05 15:43 5.38010 -75.67501 24058 ft 480 kts 23°
2026-05-05 15:43 5.41105 -75.66180 24052 ft 480 kts 23°
2026-05-05 15:43 5.44200 -75.64859 24050 ft 479 kts 23°
2026-05-05 15:43 5.47268 -75.63550 24054 ft 479 kts 23°
2026-05-05 15:44 5.50311 -75.62251 24059 ft 480 kts 23°
2026-05-05 15:44 5.53384 -75.60939 24061 ft 480 kts 23°
2026-05-05 15:44 5.56456 -75.59627 24060 ft 480 kts 23°
2026-05-05 15:44 5.59539 -75.58310 24060 ft 480 kts 23°
2026-05-05 15:45 5.62621 -75.56994 24069 ft 481 kts 24°
2026-05-05 15:45 5.65721 -75.55670 24085 ft 482 kts 24°
2026-05-05 15:45 5.68801 -75.54355 24096 ft 483 kts 24°
2026-05-05 15:45 5.71927 -75.53018 24099 ft 484 kts 24°
2026-05-05 15:46 5.75003 -75.51703 24101 ft 485 kts 24°
2026-05-05 15:46 5.78129 -75.50366 24102 ft 486 kts 24°
2026-05-05 15:46 5.81243 -75.49034 24103 ft 486 kts 24°
2026-05-05 15:46 5.84332 -75.47713 24105 ft 486 kts 24°
2026-05-05 15:47 5.87456 -75.46376 24106 ft 487 kts 24°
2026-05-05 15:47 5.89540 -75.45484 24106 ft 487 kts 24°
2026-05-05 15:47 5.93701 -75.43702 24106 ft 487 kts 24°
2026-05-05 15:47 5.96883 -75.42566 24104 ft 489 kts 16°
2026-05-05 15:48 6.00248 -75.41906 24111 ft 491 kts
2026-05-05 15:48 6.03522 -75.41583 24116 ft 492 kts
2026-05-05 15:48 6.06960 -75.41449 24116 ft 493 kts
2026-05-05 15:48 6.10376 -75.41443 24113 ft 493 kts
2026-05-05 15:49 6.13822 -75.41510 24111 ft 493 kts 360°
2026-05-05 15:49 6.17237 -75.41619 24110 ft 493 kts 359°
2026-05-05 15:49 6.20697 -75.41750 24110 ft 493 kts 359°
2026-05-05 15:49 6.24105 -75.41887 24110 ft 493 kts 359°
2026-05-05 15:50 6.27545 -75.42025 24110 ft 493 kts 359°
2026-05-05 15:50 6.30997 -75.42160 24110 ft 493 kts 359°
2026-05-05 15:50 6.34434 -75.42286 24109 ft 494 kts 356°
2026-05-05 15:50 6.37867 -75.42402 24110 ft 495 kts 356°
2026-05-05 15:51 6.41318 -75.42515 24110 ft 493 kts 357°
2026-05-05 15:51 6.44713 -75.42621 24109 ft 492 kts 357°
2026-05-05 15:51 6.48147 -75.42724 24109 ft 491 kts 357°
2026-05-05 15:51 6.51584 -75.42822 24109 ft 490 kts 358°
2026-05-05 15:52 6.54978 -75.42916 24108 ft 488 kts 358°
2026-05-05 15:52 6.58366 -75.43005 24107 ft 486 kts 358°
2026-05-05 15:52 6.61748 -75.43090 24107 ft 485 kts 358°
2026-05-05 15:52 6.65114 -75.43173 24107 ft 485 kts 358°
2026-05-05 15:53 6.68493 -75.43253 24106 ft 484 kts 358°
2026-05-05 15:53 6.71843 -75.43330 24105 ft 484 kts 358°
2026-05-05 15:53 6.75241 -75.43407 24104 ft 484 kts 358°
2026-05-05 15:53 6.78570 -75.43481 24104 ft 484 kts 358°
2026-05-05 15:54 6.81985 -75.43556 24104 ft 484 kts 358°
2026-05-05 15:54 6.85308 -75.43628 24104 ft 484 kts 358°
2026-05-05 15:54 6.88675 -75.43700 24106 ft 484 kts 358°
2026-05-05 15:54 6.92050 -75.43772 24108 ft 485 kts 358°
2026-05-05 15:55 6.95427 -75.43844 24109 ft 485 kts 358°
2026-05-05 15:55 6.98805 -75.43915 24110 ft 485 kts 358°
2026-05-05 15:55 7.02190 -75.43987 24110 ft 485 kts 358°
2026-05-05 15:55 7.05591 -75.44058 24110 ft 486 kts 358°
2026-05-05 15:56 7.08937 -75.44128 24110 ft 487 kts 358°
2026-05-05 15:56 7.12325 -75.44199 24111 ft 487 kts 358°
2026-05-05 15:56 7.15731 -75.44270 24111 ft 488 kts 358°
2026-05-05 15:56 7.19143 -75.44342 24111 ft 488 kts 358°
2026-05-05 15:57 7.22528 -75.44412 24110 ft 488 kts 357°
2026-05-05 15:57 7.25901 -75.44482 24110 ft 490 kts 357°
2026-05-05 15:57 7.29335 -75.44554 24111 ft 491 kts 357°
2026-05-05 15:57 7.32745 -75.44625 24111 ft 491 kts 357°
2026-05-05 15:58 7.36152 -75.44697 24111 ft 492 kts 357°
2026-05-05 15:58 7.39611 -75.44769 24110 ft 492 kts 357°
2026-05-05 15:58 7.43036 -75.44840 24110 ft 494 kts 357°
2026-05-05 15:58 7.46454 -75.44912 24111 ft 495 kts 357°
2026-05-05 15:59 7.49935 -75.44984 24111 ft 496 kts 357°
2026-05-05 15:59 7.53371 -75.45056 24111 ft 496 kts 357°
2026-05-05 15:59 7.56851 -75.45129 24109 ft 497 kts 359°
2026-05-05 15:59 7.60291 -75.45204 24109 ft 500 kts 359°
2026-05-05 16:00 7.63783 -75.45279 24111 ft 503 kts 359°
2026-05-05 16:00 7.67312 -75.45352 24111 ft 505 kts 359°
2026-05-05 16:00 7.70845 -75.45424 24111 ft 506 kts 359°
2026-05-05 16:00 7.74334 -75.45496 24112 ft 506 kts
2026-05-05 16:01 7.77872 -75.45570 24112 ft 505 kts
2026-05-05 16:01 7.81355 -75.45645 24111 ft 504 kts 359°
2026-05-05 16:01 7.84840 -75.45935 24112 ft 504 kts 354°
2026-05-05 16:01 7.88349 -75.46524 24117 ft 505 kts 350°
2026-05-05 16:02 7.91771 -75.47293 24117 ft 505 kts 346°
2026-05-05 16:02 7.95135 -75.48175 24117 ft 506 kts 344°
2026-05-05 16:02 7.98536 -75.49150 24116 ft 507 kts 343°
2026-05-05 16:02 8.01917 -75.50172 24113 ft 507 kts 342°
2026-05-05 16:03 8.05313 -75.51226 24112 ft 508 kts 342°
2026-05-05 16:03 8.08679 -75.52285 24111 ft 508 kts 342°
2026-05-05 16:03 8.12054 -75.53351 24111 ft 508 kts 343°
2026-05-05 16:03 8.15419 -75.54411 24111 ft 508 kts 343°
2026-05-05 16:04 8.18819 -75.55475 24111 ft 508 kts 343°
2026-05-05 16:04 8.22188 -75.56521 24111 ft 508 kts 343°
2026-05-05 16:04 8.25581 -75.57567 24111 ft 507 kts 344°
2026-05-05 16:04 8.28931 -75.58592 24112 ft 505 kts 345°
2026-05-05 16:05 8.32323 -75.59621 24111 ft 504 kts 345°
2026-05-05 16:05 8.35683 -75.60634 24111 ft 503 kts 345°
2026-05-05 16:05 8.39039 -75.61640 24111 ft 502 kts 345°
2026-05-05 16:05 8.42397 -75.62641 24111 ft 502 kts 345°
2026-05-05 16:06 8.45721 -75.63629 24111 ft 501 kts 345°
2026-05-05 16:06 8.49080 -75.64624 24038 ft 501 kts 345°
2026-05-05 16:06 8.52423 -75.65615 23585 ft 480 kts 345°
2026-05-05 16:06 8.55487 -75.66528 22924 ft 447 kts 345°
2026-05-05 16:07 8.58361 -75.67385 22244 ft 419 kts 345°
2026-05-05 16:07 8.61092 -75.68199 21561 ft 396 kts 345°
2026-05-05 16:07 8.63684 -75.68969 20878 ft 376 kts 346°
2026-05-05 16:07 8.66105 -75.69738 20203 ft 360 kts 341°
2026-05-05 16:08 8.68341 -75.70805 19522 ft 347 kts 333°
2026-05-05 16:08 8.70345 -75.72059 18847 ft 335 kts 324°
2026-05-05 16:08 8.72187 -75.73420 18175 ft 324 kts 320°
2026-05-05 16:08 8.73928 -75.74854 17494 ft 316 kts 317°
2026-05-05 16:09 8.75013 -75.75801 17051 ft 312 kts 317°
2026-05-05 16:09 8.77148 -75.77740 16147 ft 305 kts 316°
2026-05-05 16:09 8.78186 -75.78703 15696 ft 302 kts 316°
2026-05-05 16:09 8.80223 -75.80604 14801 ft 298 kts 316°
2026-05-05 16:10 8.81247 -75.81559 14346 ft 297 kts 317°
2026-05-05 16:10 8.82773 -75.82960 13667 ft 294 kts 320°
2026-05-05 16:10 8.84530 -75.83969 12970 ft 290 kts 341°
2026-05-05 16:10 8.86492 -75.84196 12299 ft 282 kts
2026-05-05 16:11 8.88330 -75.83623 11627 ft 274 kts 30°
2026-05-05 16:11 8.90334 -75.78916 10106 ft 244 kts 104°
2026-05-05 16:12 8.89452 -75.77502 10116 ft 234 kts 130°
2026-05-05 16:12 8.87260 -75.75103 10112 ft 233 kts 130°
2026-05-05 16:13 8.83950 -75.71466 10111 ft 234 kts 130°
2026-05-05 16:13 8.82853 -75.70261 10111 ft 235 kts 130°
2026-05-05 16:13 8.81739 -75.69038 10112 ft 235 kts 130°
2026-05-05 16:14 8.79524 -75.66604 10111 ft 235 kts 130°
2026-05-05 16:14 8.77318 -75.64181 10111 ft 235 kts 130°
2026-05-05 16:15 8.75103 -75.61744 10111 ft 235 kts 130°
2026-05-05 16:15 8.72884 -75.59303 10110 ft 235 kts 130°
2026-05-05 16:16 8.70668 -75.56865 10111 ft 235 kts 130°
2026-05-05 16:16 8.68458 -75.54430 10112 ft 235 kts 130°
2026-05-05 16:17 8.66254 -75.52002 10111 ft 235 kts 130°
2026-05-05 16:17 8.65143 -75.50777 10110 ft 235 kts 130°
2026-05-05 16:18 8.62937 -75.48345 10113 ft 235 kts 130°
2026-05-05 16:18 8.61819 -75.47113 10111 ft 235 kts 130°
2026-05-05 16:18 8.59618 -75.44685 10111 ft 235 kts 130°
2026-05-05 16:19 8.58506 -75.43457 10110 ft 235 kts 130°
2026-05-05 16:19 8.57409 -75.42245 10111 ft 235 kts 130°
2026-05-05 16:19 8.55208 -75.39823 10109 ft 235 kts 132°
2026-05-05 16:20 8.52145 -75.38760 9850 ft 254 kts 182°
2026-05-05 16:20 8.49156 -75.40607 8612 ft 260 kts 236°
2026-05-05 16:21 8.48581 -75.44057 7392 ft 251 kts 277°
2026-05-05 16:22 8.50337 -75.48960 5524 ft 246 kts 294°
2026-05-05 16:22 8.51783 -75.52110 4270 ft 247 kts 295°
2026-05-05 16:23 8.53198 -75.55272 3150 ft 241 kts 295°
2026-05-05 16:23 8.53848 -75.56748 3108 ft 217 kts 295°
2026-05-05 16:23 8.54971 -75.59262 3100 ft 179 kts 295°
2026-05-05 16:24 8.55479 -75.60368 3104 ft 174 kts 295°
2026-05-05 16:24 8.55978 -75.61478 3109 ft 172 kts 295°
2026-05-05 16:24 8.56959 -75.63659 3106 ft 170 kts 294°
2026-05-05 16:25 8.57464 -75.64746 3111 ft 171 kts 295°
2026-05-05 16:25 8.59072 -75.66440 3132 ft 172 kts 326°
2026-05-05 16:25 8.60092 -75.67095 3113 ft 174 kts 331°
2026-05-05 16:26 8.62350 -75.67888 3118 ft 169 kts 343°
2026-05-05 16:26 8.64585 -75.68549 3110 ft 167 kts 347°
2026-05-05 16:27 8.65726 -75.68808 3110 ft 168 kts 347°
2026-05-05 16:27 8.66867 -75.69102 3108 ft 170 kts 343°
2026-05-05 16:27 8.67938 -75.69625 3112 ft 172 kts 330°
2026-05-05 16:27 8.68919 -75.70346 3118 ft 174 kts 322°
2026-05-05 16:28 8.69838 -75.71142 3075 ft 177 kts 319°
2026-05-05 16:28 8.70755 -75.71983 2835 ft 176 kts 319°
2026-05-05 16:28 8.71647 -75.72804 2598 ft 171 kts 319°
2026-05-05 16:28 8.72532 -75.73610 2376 ft 169 kts 319°
2026-05-05 16:29 8.73408 -75.74404 2164 ft 168 kts 319°
2026-05-05 16:29 8.74274 -75.75195 1953 ft 167 kts 319°
2026-05-05 16:29 8.75131 -75.75980 1739 ft 167 kts 319°
2026-05-05 16:29 8.75981 -75.76756 1523 ft 166 kts 319°
2026-05-05 16:30 8.76840 -75.77542 1303 ft 166 kts 318°
2026-05-05 16:30 8.77690 -75.78321 1081 ft 166 kts 318°
2026-05-05 16:30 8.78558 -75.79109 859 ft 164 kts 318°
2026-05-05 16:30 8.79368 -75.79849 662 ft 150 kts 318°
2026-05-05 16:31 8.80118 -75.80542 449 ft 143 kts 318°
2026-05-05 16:31 8.80836 -75.81194 265 ft 138 kts 318°
2026-05-05 16:31 8.81539 -75.81839 85 ft 131 kts 317°
2026-05-05 16:31 8.82126 -75.82384 52 ft 99 kts 317°
2026-05-05 16:32 8.82492 -75.82727 51 ft 23 kts 310°
2026-05-05 16:32 8.82517 -75.82753 51 ft 2 kts 310°
2026-05-05 16:32 8.82540 -75.82753 51 ft 3 kts 108°
2026-05-05 16:32 8.82479 -75.82693 51 ft 19 kts 139°
2026-05-05 16:33 8.82463 -75.82595 51 ft 18 kts 64°
2026-05-05 16:33 8.82508 -75.82534 51 ft 0 kts 48°